Regional Weather Roundup
Issued by NWS

Home | Current Version | Previous Version | Graphics & Text | Print | Product List | Glossary On
Versions: 1 2 3 4 5 6 7 8 9 10 11 12 13 14 15 16 17 18 19 20 21 22 23 24 25 26 27
000
ASUS45 KCYS 161210
RWRWY

WYOMING REGIONAL WEATHER ROUNDUP
NATIONAL WEATHER SERVICE CHEYENNE WY
500 AM MST SAT DEC 16 2017

NOTE:  "FAIR" INDICATES FEW OR NO CLOUDS BELOW 12,000 FEET
WITH NO SIGNIFICANT WEATHER AND/OR OBSTRUCTIONS TO VISIBILITY.

WYZ001-161300-
YELLOWSTONE NATIONAL PARK

CITY           SKY/WX    TMP DP  RH WIND       PRES   REMARKS
LK YELLOWSTONE   N/A     20  18  92 CALM      29.84F
6HR MIN TEMP:  17; 6HR MAX TEMP:  20; 6HR PCP:  0.08;

W YELLOWSTONE  NOT AVBL

$$
WYZ002>013-054>058-071-098>099-161300-
NORTHERN WYOMING

CITY           SKY/WX    TMP DP  RH WIND       PRES   REMARKS
JACKSON        LGT SNOW  25  23  92 CALM      29.83F FOG
CODY           CLOUDY    32  29  88 N8        29.85R WCI  25
GREYBULL       CLOUDY    29  20  69 CALM      29.81S
6HR MIN TEMP:  26; 6HR MAX TEMP:  30;

WORLAND        CLOUDY    34  22  61 VRB3      29.81S
6HR MIN TEMP:  25; 6HR MAX TEMP:  34;

SHERIDAN       LGT SNOW  33  32  96 W7        29.88S VSB 1   WCI  27
6HR MIN TEMP:  33; 6HR MAX TEMP:  42; 6HR PCP:  0.01;

BUFFALO        CLOUDY    35  25  66 N15       29.85S WCI  25
6HR MIN TEMP:  35; 6HR MAX TEMP:  47;

GILLETTE       CLOUDY    28  21  75 CALM      29.84S
6HR MIN TEMP:  26; 6HR MAX TEMP:  37;

HULETT         CLOUDY    32  27  80 NW5       29.86S WCI  27
NEWCASTLE      FAIR      32  18  55 N9        29.81S WCI  24

$$
WYZ014>020-022>026-101>103-161300-
CENTRAL WYOMING

CITY           SKY/WX    TMP DP  RH WIND       PRES   REMARKS
BIG PINEY      CLOUDY    27  23  85 E8        29.84F WCI  19
6HR MIN TEMP:  16; 6HR MAX TEMP:  27;

PINEDALE       LGT SNOW  23  23 100 CALM      29.85F
DUBOIS         CLOUDY    28  21  74 N15G21    29.76F WCI  17
LANDER         CLOUDY    27  20  75 CALM      29.78S
6HR MIN TEMP:  24; 6HR MAX TEMP:  36;

RIVERTON       CLOUDY    28  20  71 NW7       29.80S WCI  21
6HR MIN TEMP:  24; 6HR MAX TEMP:  31;

CASPER         FAIR      31  19  61 NW7       29.82R WCI  24
6HR MIN TEMP:  31; 6HR MAX TEMP:  40;

DOUGLAS        FAIR      36  18  48 N15       29.80S WCI  27
6HR MIN TEMP:  35; 6HR MAX TEMP:  47;


$$
WYZ021-027>030-104>119-161300-
SOUTHERN WYOMING

CITY           SKY/WX    TMP DP  RH WIND       PRES   REMARKS
EVANSTON       CLOUDY    35  23  61 W10       29.83F WCI  27
6HR MIN TEMP:  31; 6HR MAX TEMP:  36;

FORT BRIDGER   CLOUDY    35   7  31 NW10      29.87S WCI  28
ROCK SPRINGS   CLOUDY    28   9  44 S3        29.83F
6HR MIN TEMP:  27; 6HR MAX TEMP:  33;

DIXON          FAIR      17   8  67 CALM      29.90F
RAWLINS        FAIR      34   8  33 W6        29.84R WCI  29
6HR MIN TEMP:  29; 6HR MAX TEMP:  35;

SARATOGA       FAIR      28  10  47 S7        29.84F WCI  21
LARAMIE        FAIR      28   7  41 CALM      29.81F
6HR MIN TEMP:  28; 6HR MAX TEMP:  36;

CHEYENNE       FAIR      44   1  16 NW6       29.78R
6HR MIN TEMP:  42; 6HR MAX TEMP:  48;

TORRINGTON     FAIR      40   9  28 N5        29.77R
6HR MIN TEMP:  39; 6HR MAX TEMP:  50;

PINE BLUFFS    FAIR      32  12  43 MISG      29.80R

$$




USA.gov is the U.S. government's official web portal to all federal, state and local government web resources and services.